Location: Dreilärchen
(47.9312°N, 8.6113°E)
Time: 21:11:17
(UTC+00:00)

CZ-2D R/B - Pass Details

Date: 26 May 2022
Orbit: 791 x 845 km, 98.7° (Epoch: 02 July)

Event Time Altitude Azimuth Distance (km) Brightness Sun altitude
Rises 02:32:06 0° 5° (N) 3,386 6.2 -9.0°
Reaches altitude 10° 02:34:53 10° 352° (N) 2,439 5.2 -8.6°
Maximum altitude 02:39:03 24° 301° (WNW) 1,660 3.6 -8.2°
Drops below altitude 10° 02:43:11 10° 250° (WSW) 2,399 4.0 -7.7°
Enters shadow 02:43:49 - 246° (WSW) 2,598 4.1 -7.6°
